Norfolk, VA

4:01 AM EDT on October 21, 2017 (GMT -0400)
Norfolk International

Weather History for KORF - November, 2013

Change the Weather History Date:

Wednesday, November 27, 2013

  Actual Average Record
Temperature  
Mean Temperature 54 °F 49 °F  
Max Temperature 69 °F 58 °F 82 °F (1973)
Min Temperature 39 °F 41 °F 24 °F (1903)
Degree Days  
Heating Degree Days 11 16  
Month to date heating degree days 333 322  
Since 1 July heating degree days 453 479  
Cooling Degree Days 0 0  
Month to date cooling degree days 9 1  
Year to date cooling degree days 1754 1621  
Moisture  
Dew Point 45 °F    
Average Humidity 81    
Maximum Humidity 96    
Minimum Humidity 65    
Precipitation  
Precipitation 1.01 in 0.10 in 1.55 in (1878)
Month to date precipitation 2.57 2.83  
Year to date precipitation 40.90 42.95  
Snow  
Snow 0.00 in 0.00 in 0.00 in (2002)
Month to date snowfall 0.0 0.0  
Since 1 July snowfall 0.0 0.0  
Snow Depth 0.00 in    
Sea Level Pressure  
Sea Level Pressure 29.59 in    
Wind  
Wind Speed 13 mph (NNW)    
Max Wind Speed 29 mph    
Max Gust Speed 38 mph    
Visibility 6 miles    
Events Rain    
T = Trace of Precipitation, MM = Missing Value Source: NWS Daily Summary

Daily Weather History Graph

Daily Weather History Graph

Search for Another Location

Airport or City:

Trip Planner

Search our weather history database for the weather conditions in past years. The results will help you decide how hot, cold, wet, or windy it might be!

Date:

Astronomy

Nov. 27, 2013 Rise Set
Actual Time 6:55 AM EST 4:49 PM EST
Civil Twilight 6:27 AM EST 5:17 PM EST
Nautical Twilight 5:55 AM EST 5:49 PM EST
Astronomical Twilight 5:24 AM EST 6:20 PM EST
Moon 1:03 AM EST (11/27) 1:18 PM EST (11/27)
Length of Visible Light 10h 50m
Length of Day
9h 53m
Waning Crescent, 32% of the Moon is Illuminated
Nov 27
Waning Crescent
Dec 2
New
Dec 9
First Quarter
Dec 17
Full
Dec 25
Last Quarter

Hourly Weather History & Observations

Time (EST) Temp. Windchill Dew Point Humidity Pressure Visibility Wind Dir Wind Speed Gust Speed Precip Events Conditions
12:24 AM 66.2 °F - 62.6 °F 88% 29.58 in 7.0 mi South 19.6 mph 29.9 mph 0.01 in Rain Light Rain
12:51 AM 66.9 °F - 64.0 °F 90% 29.56 in 10.0 mi South 13.8 mph 26.5 mph 0.01 in   Overcast
1:15 AM 66.2 °F - 64.4 °F 94% 29.54 in 2.5 mi South 13.8 mph 24.2 mph 0.04 in Rain Heavy Rain
1:27 AM 66.2 °F - 64.4 °F 94% 29.55 in 6.0 mi South 15.0 mph - 0.07 in Rain Light Rain
1:33 AM 66.2 °F - 64.4 °F 94% 29.54 in 10.0 mi South 12.7 mph - 0.07 in Rain Light Rain
1:51 AM 68.0 °F - 64.9 °F 90% 29.53 in 10.0 mi South 19.6 mph 31.1 mph 0.07 in Rain Light Rain
2:51 AM 68.0 °F - 64.9 °F 90% 29.52 in 8.0 mi SSW 18.4 mph 34.5 mph 0.03 in Rain Rain
3:44 AM 68.0 °F - 64.4 °F 88% 29.48 in 10.0 mi South 17.3 mph 27.6 mph 0.03 in   Scattered Clouds
3:51 AM 68.0 °F - 64.9 °F 90% 29.48 in 10.0 mi South 19.6 mph 26.5 mph 0.03 in   Mostly Cloudy
4:51 AM 68.0 °F - 64.9 °F 90% 29.46 in 10.0 mi South 15.0 mph 23.0 mph N/A   Clear
5:51 AM 68.0 °F - 64.9 °F 90% 29.45 in 10.0 mi South 16.1 mph 21.9 mph 0.00 in Rain Light Rain
6:15 AM 64.4 °F - 62.6 °F 94% 29.47 in 10.0 mi WNW 10.4 mph 23.0 mph 0.00 in Rain Light Rain
6:22 AM 60.8 °F - 57.2 °F 88% 29.48 in 10.0 mi Variable 6.9 mph 20.7 mph 0.00 in   Overcast
6:51 AM 52.0 °F - 50.0 °F 93% 29.48 in 3.0 mi North 13.8 mph 18.4 mph 0.06 in Rain Rain
7:06 AM 51.8 °F - 48.2 °F 88% 29.49 in - North 11.5 mph 20.7 mph 0.01 in Rain Light Rain
7:21 AM 50.0 °F - 48.2 °F 94% 29.50 in 2.5 mi North 12.7 mph - 0.06 in Rain Rain
7:28 AM 50.0 °F - 46.4 °F 87% 29.51 in 4.0 mi North 11.5 mph - 0.08 in Rain Light Rain
7:38 AM 50.0 °F - 46.4 °F 87% 29.51 in 4.0 mi North 11.5 mph - 0.08 in Rain Rain
7:51 AM 48.0 °F - 46.0 °F 93% 29.52 in 2.0 mi North 12.7 mph 17.3 mph 0.11 in Rain Light Rain
8:07 AM 48.2 °F - 44.6 °F 87% 29.50 in 6.0 mi North 15.0 mph 23.0 mph 0.03 in Rain Light Rain
8:14 AM 46.4 °F 40.7 °F 44.6 °F 93% 29.50 in 2.5 mi North 12.7 mph 21.9 mph 0.04 in Rain Rain
8:21 AM 46.4 °F 40.1 °F 44.6 °F 93% 29.49 in 2.5 mi North 15.0 mph - 0.06 in Rain Light Rain
8:27 AM 48.2 °F - 44.6 °F 87% 29.49 in 3.0 mi North 11.5 mph - 0.07 in Rain Light Rain
8:34 AM 48.2 °F - 46.4 °F 93% 29.50 in 4.0 mi North 9.2 mph - 0.07 in Rain Light Rain
8:41 AM 48.2 °F - 46.4 °F 93% 29.50 in 1.8 mi North 10.4 mph - 0.08 in Rain Rain
8:51 AM 46.9 °F - 45.0 °F 93% 29.50 in 1.5 mi North 12.7 mph - 0.17 in Rain Rain
9:00 AM 46.4 °F 39.8 °F 44.6 °F 93% 29.51 in 2.0 mi North 16.1 mph 20.7 mph 0.02 in Rain Rain
9:03 AM 46.4 °F 39.8 °F 44.6 °F 93% 29.51 in 1.8 mi North 16.1 mph 20.7 mph 0.02 in Rain Rain
9:14 AM 46.4 °F 39.0 °F 44.6 °F 93% 29.51 in 2.5 mi North 19.6 mph 24.2 mph 0.04 in   Overcast
9:32 AM 46.4 °F 41.5 °F 44.6 °F 93% 29.50 in 1.5 mi NNW 10.4 mph 25.3 mph 0.07 in Rain Rain
9:51 AM 45.0 °F 39.3 °F 43.0 °F 93% 29.52 in 1.5 mi NNW 11.5 mph 25.3 mph 0.18 in Rain Rain
10:01 AM 44.6 °F 38.8 °F 42.8 °F 93% 29.53 in 2.0 mi North 11.5 mph 21.9 mph 0.03 in Rain Rain
10:14 AM 44.6 °F 38.8 °F 42.8 °F 93% 29.53 in 6.0 mi North 11.5 mph 23.0 mph 0.06 in Rain Light Rain
10:51 AM 44.1 °F 37.7 °F 41.0 °F 89% 29.51 in 4.0 mi North 12.7 mph 24.2 mph 0.08 in Rain Rain
10:58 AM 44.6 °F 37.8 °F 41.0 °F 87% 29.52 in 1.8 mi North 15.0 mph 23.0 mph 0.03 in Rain Heavy Rain
11:15 AM 42.8 °F 35.1 °F 41.0 °F 93% 29.50 in 3.0 mi North 16.1 mph 24.2 mph 0.13 in Rain Rain
11:28 AM 44.6 °F 37.8 °F 41.0 °F 87% 29.51 in 10.0 mi North 15.0 mph 26.5 mph 0.14 in   Overcast
11:44 AM 42.8 °F 37.5 °F 41.0 °F 93% 29.52 in 4.0 mi NNW 9.2 mph 21.9 mph 0.14 in Rain Light Rain
11:51 AM 43.0 °F 36.8 °F 41.0 °F 93% 29.52 in 4.0 mi NNW 11.5 mph 23.0 mph 0.15 in Rain Rain
12:00 PM 42.8 °F 36.2 °F 39.2 °F 87% 29.52 in 6.0 mi NNW 12.7 mph 23.0 mph 0.02 in Rain Light Rain
12:44 PM 42.8 °F 35.4 °F 39.2 °F 87% 29.52 in 2.5 mi NNW 15.0 mph 23.0 mph 0.06 in Rain Rain
12:51 PM 42.1 °F 37.1 °F 39.0 °F 89% 29.50 in 4.0 mi NNW 8.1 mph 23.0 mph 0.08 in Rain Light Rain
1:51 PM 42.1 °F 33.9 °F 37.9 °F 85% 29.51 in 10.0 mi NNW 17.3 mph 26.5 mph 0.03 in   Overcast
2:37 PM 41.0 °F 35.2 °F 37.4 °F 87% 29.57 in 10.0 mi NW 9.2 mph 23.0 mph N/A   Overcast
2:51 PM 41.0 °F 34.3 °F 36.0 °F 82% 29.58 in 10.0 mi NNW 11.5 mph 31.1 mph N/A   Overcast
3:24 PM 39.2 °F 31.2 °F 37.4 °F 93% 29.63 in 4.0 mi NW 13.8 mph 20.7 mph 0.00 in   Overcast
3:51 PM 39.9 °F 31.8 °F 35.1 °F 83% 29.66 in 9.0 mi NW 15.0 mph 29.9 mph 0.01 in Rain Light Rain
4:06 PM 39.2 °F 30.8 °F 35.6 °F 87% 29.67 in 10.0 mi NNW 15.0 mph 27.6 mph N/A   Overcast
4:22 PM 39.2 °F 30.2 °F 33.8 °F 81% 29.68 in 10.0 mi NW 17.3 mph 28.8 mph N/A   Overcast
4:51 PM 39.9 °F 32.9 °F 33.1 °F 77% 29.71 in 10.0 mi NW 11.5 mph 25.3 mph N/A   Overcast
5:51 PM 39.9 °F 32.9 °F 32.0 °F 73% 29.77 in 10.0 mi NW 11.5 mph 20.7 mph N/A   Overcast
6:51 PM 41.0 °F 35.8 °F 32.0 °F 70% 29.83 in 10.0 mi NW 8.1 mph 17.3 mph N/A   Overcast
7:51 PM 41.0 °F 37.1 °F 30.0 °F 65% 29.87 in 10.0 mi Variable 5.8 mph 26.5 mph N/A   Overcast
8:51 PM 41.0 °F 35.8 °F 30.9 °F 67% 29.90 in 10.0 mi NW 8.1 mph 17.3 mph N/A   Overcast
9:51 PM 41.0 °F 36.4 °F 30.9 °F 67% 29.95 in 10.0 mi Variable 6.9 mph - N/A   Overcast
10:38 PM 39.2 °F 35.0 °F 32.0 °F 75% 29.98 in 10.0 mi West 5.8 mph - N/A   Overcast
10:51 PM 39.9 °F 33.9 °F 32.0 °F 73% 29.99 in 10.0 mi NW 9.2 mph - N/A   Overcast
11:34 PM 39.2 °F 32.5 °F 26.6 °F 61% 30.03 in 10.0 mi NNW 10.4 mph 17.3 mph N/A   Overcast
11:51 PM 39.0 °F 32.3 °F 25.0 °F 57% 30.04 in 10.0 mi NW 10.4 mph 18.4 mph N/A   Overcast